Regional Weather Roundup
Issued by NWS Burlington, VT

Home | Current Version | Previous Version | Text Only | Print | Product List | Glossary On
Versions: 1 2 3 4 5 6 7 8 9 10 11 12 13 14 15 16 17 18 19 20 21 22 23 24 25 26 27 28 29 30 31 32 33 34 35 36 37 38 39 40 41 42 43 44 45 46 47 48 49 50
000
ASUS41 KBTV 011610
RWRBTV
VERMONT REGIONAL WEATHER ROUNDUP
NATIONAL WEATHER SERVICE BURLINGTON VT
1200 PM EDT WED APR 01 2015

NOTE: "FAIR" INDICATES FEW OR NO CLOUDS BELOW 12,000 FEET WITH NO
SIGNIFICANT WEATHER AND/OR OBSTRUCTIONS TO VISIBILITY.

* THESE REPORTS ARE NOT UNDER NWS QUALITY CONTROL AND/OR DO NOT
  REPORT WEATHER SUCH AS PRECIPITATION AND FOG.

VTZ001>019-011700-
_____VERMONT_____


CITY           SKY/WX    TMP DP  RH WIND       PRES   REMARKS
BURLINGTON     MOSUNNY   32   4  30 N13       30.10S
MONTPELIER     MOSUNNY   27   5  39 NW15G22   30.05R WCI  15
MORRISVILLE    MOSUNNY   30   5  34 NW13G20   30.06S WCI  20
ST. JOHNSBURY*   N/A     31   3  30 MISG      30.01S
LYNDONVILLE*     N/A     27  -2  28 W10G20    30.02R WCI  17
MIDDLEBURY*      N/A     32   6  33 N14G20    30.08R
RUTLAND*       SUNNY    N/A N/A N/A N13G18    30.04R
SPRINGFIELD    SUNNY     35   8  32 W14       30.01R
HIGHGATE*        N/A     29   7  40 N5        30.11S
NEWPORT*         N/A     26   4  39 NW12G21   30.03F WCI  16
BENNINGTON     SUNNY     35   8  32 NW8G17    30.03S
SUTTON*          N/A     27 N/A N/A MISG        N/A

_____LAKE CHAMPLAIN_____


CITY           SKY/WX    TMP DP  RH WIND       PRES   REMARKS

$$

NYZ007-026>031-035-052-083-011700-
_____NORTHERN NEW YORK_____


CITY           SKY/WX    TMP DP  RH WIND       PRES   REMARKS
PLATTSBURGH    SUNNY     31  10  41 NE12      30.10S
SARANAC LAKE   FLURRIES  27  -1  30 W8        30.01R
MASSENA        SUNNY     31   5  33 N9        30.17R
OGDENSBURG*    SUNNY     36   7  30 NE5       30.16S
POTSDAM*       SUNNY     32   9  37 N8        30.14S
WATERTOWN      SUNNY     35   7  31 N5        30.17R
FT DRUM        SUNNY     30   3  31 N8        30.13R
ALBANY         MOSUNNY   41   4  21 N7        30.07R
GLENS FALLS    SUNNY     35  11  36 VRB7      30.07S

$$
NHZ002-005-011-011700-
_____NEW HAMPSHIRE_____


CITY           SKY/WX    TMP DP  RH WIND       PRES   REMARKS
LEBANON        SUNNY     36   7  29 N10G25    30.01S
KEENE          SUNNY     37   9  30 N15       30.00S
MT WASHINGTON  PTSUNNY    0  -9  65 NW47G56     N/A  WCI -31
PLYMOUTH         N/A     33  13  43 NW12      30.00S
WHITEFIELD     SUNNY     30   3  31 W17G23    29.98S WCI  18

$$

_____REGIONAL QUEBEC LOCATIONS_____


CITY           SKY/WX    TMP DP  RH WIND       PRES   REMARKS
MONTREAL       MOSUNNY   30   3  31 W8        30.14R
QUEBEC CITY    MOSUNNY   23  -2  33 W10       30.03F WCI  12
SHERBROOKE     SUNNY     25   3  39 NW12G20   30.03S WCI  14

_____REGIONAL ONTARIO LOCATIONS_____


CITY           SKY/WX    TMP DP  RH WIND       PRES   REMARKS
OTTAWA         MOSUNNY   30   3  31 NW10G20   30.15F

______KEY______
VSB  - VISIBILITY IN MILES
WCI  - WIND CHILL INDEX
HX   - HEAT INDEX
$$
NNNN



USA.gov is the U.S. government's official web portal to all federal, state and local government web resources and services.